Weather History for Meeker, CO

Change the Weather History Date:

Wednesday, January 4, 2012

  Actual Average Record
Temperature  
Mean Temperature 28 °F 20 °F  
Max Temperature 47 °F 33 °F 47 °F (2012)
Min Temperature 8 °F 6 °F -19 °F (2013)
Degree Days  
Heating Degree Days 37 45  
Month to date heating degree days 146 183  
Since 1 July heating degree days 3278 3472  
Cooling Degree Days 0 0  
Month to date cooling degree days 0  
Year to date cooling degree days 0  
Moisture  
Dew Point 10 °F    
Average Humidity 52    
Maximum Humidity 84    
Minimum Humidity 20    
Precipitation  
Precipitation 0.00 in 0.03 in 0.30 in (2014)
Month to date precipitation 0.00 0.15  
Year to date precipitation 0.00 0.15  
Sea Level Pressure  
Sea Level Pressure 30.64 in    
Wind  
Wind Speed 2 mph (ENE)    
Max Wind Speed 8 mph    
Max Gust Speed 10 mph    
Visibility 10 miles    
Events      
T = Trace of Precipitation, MM = Missing Value Source: NWS Daily Summary

Daily Weather History Graph

Daily Weather History Graph

Search for Another Location

Airport:

Trip Planner

Search our weather history database for the weather conditions in past years. The results will help you decide how hot, cold, wet, or windy it might be!

Date:

Astronomy

Jan. 04, 2012 Rise Set
Actual Time 7:33 AM MST 4:59 PM MST
Civil Twilight 7:03 AM MST 5:29 PM MST
Nautical Twilight 6:29 AM MST 6:03 PM MST
Astronomical Twilight 5:56 AM MST 6:36 PM MST
Moon 1:23 PM MST (1/4) 3:25 AM MST (1/4)
Length of Visible Light 10h 26m
Length of Day
9h 25m
Waxing Gibbous, 81% of the Moon is Illuminated
Jan 4
Waxing Gibbous
Jan 9
Full
Jan 16
Last Quarter
Jan 23
New
Jan 30
First Quarter

Hourly Weather History & Observations

Time (MST) Temp. Windchill Dew Point Humidity Pressure Visibility Wind Dir Wind Speed Gust Speed Precip Events Conditions
1:53 AM 19.0 °F - 10.9 °F 71% 30.55 in 10.0 mi Calm Calm - N/A   Clear
2:53 AM 10.9 °F - 7.0 °F 84% 30.61 in 10.0 mi Calm Calm - N/A   Clear
3:53 AM 12.9 °F 6.9 °F 8.1 °F 81% 30.61 in 10.0 mi East 3.5 mph - N/A   Clear
4:53 AM 9.0 °F - 5.0 °F 84% 30.65 in 10.0 mi Calm Calm - N/A   Clear
5:53 AM 14.0 °F - 8.1 °F 77% 30.68 in 10.0 mi Calm Calm - N/A   Clear
6:53 AM 14.0 °F - 8.1 °F 77% 30.73 in 10.0 mi Calm Calm - N/A   Clear
7:53 AM 12.0 °F - 7.0 °F 80% 30.77 in 10.0 mi Calm Calm - N/A   Clear
8:53 AM 21.0 °F - 12.9 °F 71% 30.76 in 10.0 mi Calm Calm - N/A   Clear
9:53 AM 30.9 °F - 12.9 °F 47% 30.70 in 10.0 mi Calm Calm - N/A   Clear
10:53 AM 37.0 °F - 12.9 °F 37% 30.66 in 10.0 mi Calm Calm - N/A   Clear
11:53 AM 41.0 °F 39.0 °F 9.0 °F 27% 30.63 in 10.0 mi Variable 3.5 mph - N/A   Clear
12:53 PM 45.0 °F - 7.0 °F 21% 30.55 in 10.0 mi Calm Calm - N/A   Clear
1:53 PM 45.0 °F 43.5 °F 10.9 °F 25% 30.55 in 10.0 mi SSW 3.5 mph - N/A   Clear
3:53 PM 46.0 °F - 10.0 °F 23% 30.57 in 10.0 mi Calm Calm - N/A   Clear
4:53 PM 37.9 °F 34.4 °F 12.0 °F 35% 30.63 in 10.0 mi WSW 4.6 mph - N/A   Clear
5:53 PM 28.0 °F - 10.9 °F 49% 30.67 in 10.0 mi Calm Calm - N/A   Clear
6:53 PM 26.1 °F 20.5 °F 10.9 °F 53% 30.69 in 10.0 mi NE 4.6 mph - N/A   Clear
7:53 PM 25.0 °F - 10.9 °F 55% 30.69 in 10.0 mi Calm Calm - N/A   Clear
8:53 PM 21.0 °F 14.6 °F 10.9 °F 65% 30.67 in 10.0 mi NE 4.6 mph - N/A   Clear
9:53 PM 21.0 °F - 10.9 °F 65% 30.62 in 10.0 mi Calm Calm - N/A   Clear
10:53 PM 19.0 °F - 10.9 °F 71% 30.59 in 10.0 mi Calm Calm - N/A   Clear
11:53 PM 18.0 °F 12.7 °F 10.0 °F 71% 30.56 in 10.0 mi ENE 3.5 mph - N/A   Clear